Location: Paris
(48.6709°N, 2.3750°E)
Time: 09:01:02
(UTC+02:00)

CAS-4B - Pass Details

Date: 07 July 2022
Orbit: 522 x 537 km, 43.0° (Epoch: 08 August)

Event Time Altitude Azimuth Distance (km) Brightness Sun altitude
Exits shadow 05:08:05 - 265° (W) 2,449 ? -6.8°
Reaches altitude 10° 05:10:00 10° 255° (WSW) 1,757 ? -6.6°
Maximum altitude 05:13:28 28° 195° (SSW) 997 ? -6.2°
Drops below altitude 10° 05:16:56 10° 136° (SE) 1,760 ? -5.8°
Sets 05:19:22 0° 124° (SE) 2,649 ? -5.5°
